Location: Palomar Mountain Lodge
(33.3110°N, 116.8495°W)
Time: 20:49:46
(UTC-08:00)

Meteor 1-21 - Pass Details

Date: 14 June 2018
Orbit: 844 x 888 km, 81.2° (Epoch: 18 November)

Event Time Altitude Azimuth Distance (km) Brightness Sun altitude
Rises 20:27:39 0° 179° (S) 3,403 7.0 -6.1°
Reaches altitude 10° 20:30:04 10° 176° (S) 2,476 6.3 -6.5°
Maximum altitude 20:35:38 67° 95° (E) 932 4.3 -7.5°
Drops below altitude 10° 20:41:18 10° 14° (NNE) 2,520 7.0 -8.5°
Sets 20:43:46 0° 12° (NNE) 3,468 7.7 -8.9°
